Year,Month,Day,Hour,Minute,Value (Times are PST for temperature in C)
2020,09,13,00,00,11.90
2020,09,13,00,01,11.90
2020,09,13,00,02,11.90
2020,09,13,00,03,11.90
2020,09,13,00,04,11.90
2020,09,13,00,05,11.90
2020,09,13,00,06,11.90
2020,09,13,00,07,11.90
2020,09,13,00,08,11.90
2020,09,13,00,09,11.90
2020,09,13,00,10,11.90
2020,09,13,00,11,11.90
2020,09,13,00,12,11.90
2020,09,13,00,13,11.90
2020,09,13,00,14,11.90
2020,09,13,00,15,11.90
2020,09,13,00,16,11.90
2020,09,13,00,17,11.90
2020,09,13,00,18,11.90
2020,09,13,00,19,11.90
2020,09,13,00,20,11.90
2020,09,13,00,21,11.90
2020,09,13,00,22,11.90
2020,09,13,00,23,11.90
2020,09,13,00,24,11.90
2020,09,13,00,25,11.90
2020,09,13,00,26,11.90
2020,09,13,00,27,12.00
2020,09,13,00,28,12.00
2020,09,13,00,29,12.00
2020,09,13,00,30,11.90
2020,09,13,00,31,11.90
2020,09,13,00,32,11.90
2020,09,13,00,33,11.90
2020,09,13,00,34,11.90
2020,09,13,00,35,11.90
2020,09,13,00,36,11.90
2020,09,13,00,37,11.90
2020,09,13,00,38,11.90
2020,09,13,00,39,11.90
2020,09,13,00,40,11.90
2020,09,13,00,41,11.90
2020,09,13,00,42,11.80
2020,09,13,00,43,11.80
2020,09,13,00,44,11.80
2020,09,13,00,45,11.80
2020,09,13,00,46,11.80
2020,09,13,00,47,11.80
2020,09,13,00,48,11.80
2020,09,13,00,49,11.80
2020,09,13,00,50,11.80
2020,09,13,00,51,11.80
2020,09,13,00,52,11.80
2020,09,13,00,53,11.80
2020,09,13,00,54,11.80
2020,09,13,00,55,11.80
2020,09,13,00,56,11.80
2020,09,13,00,57,11.80
2020,09,13,00,58,11.80
2020,09,13,00,59,11.80
2020,09,13,01,00,11.80
2020,09,13,01,01,11.80
2020,09,13,01,02,11.80
2020,09,13,01,03,11.80
2020,09,13,01,04,11.80
2020,09,13,01,05,11.80
2020,09,13,01,06,11.80
2020,09,13,01,07,11.80
2020,09,13,01,08,11.80
2020,09,13,01,09,11.80
2020,09,13,01,10,11.80
2020,09,13,01,11,11.80
2020,09,13,01,12,11.80
2020,09,13,01,13,11.90
2020,09,13,01,14,11.90
2020,09,13,01,15,11.90
2020,09,13,01,16,11.90
2020,09,13,01,17,11.90
2020,09,13,01,18,11.90
2020,09,13,01,19,11.90
2020,09,13,01,20,11.90
2020,09,13,01,21,11.90
2020,09,13,01,22,11.90
2020,09,13,01,23,11.90
2020,09,13,01,24,11.90
2020,09,13,01,25,11.90
2020,09,13,01,26,11.90
2020,09,13,01,27,11.90
2020,09,13,01,28,11.90
2020,09,13,01,29,11.90
2020,09,13,01,30,12.00
2020,09,13,01,31,12.00
2020,09,13,01,32,12.00
2020,09,13,01,33,12.00
2020,09,13,01,34,12.00
2020,09,13,01,35,12.00
2020,09,13,01,36,12.00
2020,09,13,01,37,12.00
2020,09,13,01,38,12.00
2020,09,13,01,39,12.00
2020,09,13,01,40,12.00
2020,09,13,01,41,12.00
2020,09,13,01,42,12.00
2020,09,13,01,43,12.00
2020,09,13,01,44,12.00
2020,09,13,01,45,12.00
2020,09,13,01,46,12.00
2020,09,13,01,47,11.90
2020,09,13,01,48,11.90
2020,09,13,01,49,11.90
2020,09,13,01,50,12.00
2020,09,13,01,51,12.00
2020,09,13,01,52,12.00
2020,09,13,01,53,12.00
2020,09,13,01,54,12.00
2020,09,13,01,55,12.00
2020,09,13,01,56,12.00
2020,09,13,01,57,12.00
2020,09,13,01,58,12.00
2020,09,13,01,59,12.00
2020,09,13,02,00,12.00
2020,09,13,02,01,12.00
2020,09,13,02,02,12.00
2020,09,13,02,03,12.00
2020,09,13,02,04,12.00
2020,09,13,02,05,12.00
2020,09,13,02,06,12.00
2020,09,13,02,07,12.00
2020,09,13,02,08,12.00
2020,09,13,02,09,12.00
2020,09,13,02,10,12.00
2020,09,13,02,11,12.00
2020,09,13,02,12,12.00
2020,09,13,02,13,12.00
2020,09,13,02,14,12.00
2020,09,13,02,15,12.00
2020,09,13,02,16,12.00
2020,09,13,02,17,12.00
2020,09,13,02,18,12.00
2020,09,13,02,19,12.00
2020,09,13,02,20,12.00
2020,09,13,02,21,12.00
2020,09,13,02,22,12.00
2020,09,13,02,23,12.00
2020,09,13,02,24,12.00
2020,09,13,02,25,12.00
2020,09,13,02,26,12.00
2020,09,13,02,27,11.90
2020,09,13,02,28,11.90
2020,09,13,02,29,11.90
2020,09,13,02,30,11.90
2020,09,13,02,31,11.90
2020,09,13,02,32,11.90
2020,09,13,02,33,11.90
2020,09,13,02,34,11.90
2020,09,13,02,35,11.90
2020,09,13,02,36,11.90
2020,09,13,02,37,11.90
2020,09,13,02,38,11.90
2020,09,13,02,39,11.90
2020,09,13,02,40,11.90
2020,09,13,02,41,11.90
2020,09,13,02,42,11.90
2020,09,13,02,43,11.90
2020,09,13,02,44,11.90
2020,09,13,02,45,11.90
2020,09,13,02,46,11.90
2020,09,13,02,47,11.90
2020,09,13,02,48,11.80
2020,09,13,02,49,11.80
2020,09,13,02,50,11.80
2020,09,13,02,51,11.80
2020,09,13,02,52,11.80
2020,09,13,02,53,11.80
2020,09,13,02,54,11.80
2020,09,13,02,55,11.80
2020,09,13,02,56,11.80
2020,09,13,02,57,11.80
2020,09,13,02,58,11.80
2020,09,13,02,59,11.80
2020,09,13,03,00,11.80
2020,09,13,03,01,11.80
2020,09,13,03,02,11.80
2020,09,13,03,06,11.80
2020,09,13,03,07,11.80
2020,09,13,03,08,11.80
2020,09,13,03,09,11.70
2020,09,13,03,10,11.70
2020,09,13,03,11,11.70
2020,09,13,03,12,11.70
2020,09,13,03,13,11.70
2020,09,13,03,14,11.70
2020,09,13,03,15,11.70
2020,09,13,03,16,11.70
2020,09,13,03,17,11.70
2020,09,13,03,18,11.70
2020,09,13,03,19,11.70
2020,09,13,03,20,11.70
2020,09,13,03,21,11.70
2020,09,13,03,22,11.70
2020,09,13,03,23,11.70
2020,09,13,03,24,11.70
2020,09,13,03,25,11.70
2020,09,13,03,26,11.70
2020,09,13,03,27,11.70
2020,09,13,03,28,11.70
2020,09,13,03,29,11.70
2020,09,13,03,30,11.70
2020,09,13,03,31,11.70
2020,09,13,03,32,11.70
2020,09,13,03,33,11.70
2020,09,13,03,34,11.70
2020,09,13,03,35,11.70
2020,09,13,03,36,11.70
2020,09,13,03,37,11.70
2020,09,13,03,38,11.70
2020,09,13,03,39,11.70
2020,09,13,03,40,11.70
2020,09,13,03,41,11.60
2020,09,13,03,42,11.60
2020,09,13,03,43,11.60
2020,09,13,03,44,11.60
2020,09,13,03,45,11.60
2020,09,13,03,46,11.60
2020,09,13,03,47,11.60
2020,09,13,03,48,11.60
2020,09,13,03,49,11.60
2020,09,13,03,50,11.60
2020,09,13,03,51,11.60
2020,09,13,03,52,11.60
2020,09,13,03,53,11.60
2020,09,13,03,54,11.60
2020,09,13,03,55,11.60
2020,09,13,03,56,11.50
2020,09,13,03,57,11.50
2020,09,13,03,58,11.50
2020,09,13,03,59,11.50
2020,09,13,04,00,11.50
2020,09,13,04,01,11.50
2020,09,13,04,02,11.50
2020,09,13,04,03,11.50
2020,09,13,04,04,11.40
2020,09,13,04,05,11.40
2020,09,13,04,06,11.40
2020,09,13,04,07,11.40
2020,09,13,04,08,11.40
2020,09,13,04,09,11.40
2020,09,13,04,10,11.40
2020,09,13,04,11,11.40
2020,09,13,04,12,11.40
2020,09,13,04,13,11.40
2020,09,13,04,14,11.40
2020,09,13,04,15,11.40
2020,09,13,04,16,11.40
2020,09,13,04,17,11.50
2020,09,13,04,18,11.50
2020,09,13,04,19,11.50
2020,09,13,04,20,11.50
2020,09,13,04,21,11.50
2020,09,13,04,22,11.50
2020,09,13,04,23,11.50
2020,09,13,04,24,11.50
2020,09,13,04,25,11.50
2020,09,13,04,26,11.40
2020,09,13,04,27,11.40
2020,09,13,04,28,11.40
2020,09,13,04,29,11.40
2020,09,13,04,30,11.30
2020,09,13,04,31,11.30
2020,09,13,04,32,11.30
2020,09,13,04,33,11.30
2020,09,13,04,34,11.20
2020,09,13,04,35,11.20
2020,09,13,04,36,11.10
2020,09,13,04,37,11.10
2020,09,13,04,38,11.00
2020,09,13,04,39,11.00
2020,09,13,04,40,10.90
2020,09,13,04,41,10.90
2020,09,13,04,42,10.90
2020,09,13,04,43,10.90
2020,09,13,04,44,10.80
2020,09,13,04,45,10.80
2020,09,13,04,46,10.80
2020,09,13,04,47,10.80
2020,09,13,04,48,10.80
2020,09,13,04,49,10.80
2020,09,13,04,50,10.70
2020,09,13,04,51,10.70
2020,09,13,04,52,10.70
2020,09,13,04,53,10.70
2020,09,13,04,54,10.70
2020,09,13,04,55,10.70
2020,09,13,04,56,10.70
2020,09,13,04,57,10.70
2020,09,13,04,58,10.60
2020,09,13,04,59,10.60
2020,09,13,05,00,10.60
2020,09,13,05,01,10.60
2020,09,13,05,02,10.60
2020,09,13,05,03,10.60
2020,09,13,05,04,10.60
2020,09,13,05,05,10.60
2020,09,13,05,06,10.50
2020,09,13,05,07,10.50
2020,09,13,05,08,10.50
2020,09,13,05,09,10.50
2020,09,13,05,10,10.40
2020,09,13,05,11,10.40
2020,09,13,05,12,10.40
2020,09,13,05,13,10.40
2020,09,13,05,14,10.40
2020,09,13,05,15,10.40
2020,09,13,05,16,10.40
2020,09,13,05,17,10.40
2020,09,13,05,18,10.30
2020,09,13,05,19,10.40
2020,09,13,05,20,10.40
2020,09,13,05,21,10.30
2020,09,13,05,22,10.30
2020,09,13,05,23,10.30
2020,09,13,05,24,10.30
2020,09,13,05,25,10.30
2020,09,13,05,26,10.30
2020,09,13,05,27,10.30
2020,09,13,05,28,10.30
2020,09,13,05,29,10.30
2020,09,13,05,30,10.30
2020,09,13,05,31,10.30
2020,09,13,05,32,10.30
2020,09,13,05,33,10.30
2020,09,13,05,34,10.30
2020,09,13,05,35,10.30
2020,09,13,05,36,10.30
2020,09,13,05,37,10.30
2020,09,13,05,38,10.30
2020,09,13,05,39,10.30
2020,09,13,05,40,10.30
2020,09,13,05,41,10.40
2020,09,13,05,42,10.40
2020,09,13,05,43,10.40
2020,09,13,05,44,10.40
2020,09,13,05,45,10.40
2020,09,13,05,46,10.40
2020,09,13,05,47,10.40
2020,09,13,05,48,10.40
2020,09,13,05,49,10.40
2020,09,13,05,50,10.40
2020,09,13,05,51,10.40
2020,09,13,05,52,10.40
2020,09,13,05,53,10.40
2020,09,13,05,54,10.40
2020,09,13,05,55,10.40
2020,09,13,05,56,10.40
2020,09,13,05,57,10.40
2020,09,13,05,58,10.40
2020,09,13,05,59,10.30
2020,09,13,06,00,10.30
2020,09,13,06,01,10.30
2020,09,13,06,02,10.30
2020,09,13,06,03,10.30
2020,09,13,06,04,10.30
2020,09,13,06,05,10.30
2020,09,13,06,06,10.30
2020,09,13,06,07,10.30
2020,09,13,06,08,10.30
2020,09,13,06,09,10.30
2020,09,13,06,10,10.30
2020,09,13,06,11,10.30
2020,09,13,06,12,10.20
2020,09,13,06,13,10.20
2020,09,13,06,14,10.20
2020,09,13,06,15,10.20
2020,09,13,06,16,10.20
2020,09,13,06,17,10.20
2020,09,13,06,18,10.20
2020,09,13,06,19,10.10
2020,09,13,06,20,10.10
2020,09,13,06,21,10.10
2020,09,13,06,22,10.10
2020,09,13,06,23,10.10
2020,09,13,06,24,10.10
2020,09,13,06,25,10.10
2020,09,13,06,26,10.10
2020,09,13,06,27,10.10
2020,09,13,06,28,10.10
2020,09,13,06,29,10.10
2020,09,13,06,30,10.10
2020,09,13,06,31,10.10
2020,09,13,06,32,10.10
2020,09,13,06,33,10.10
2020,09,13,06,34,10.10
2020,09,13,06,35,10.10
2020,09,13,06,36,10.10
2020,09,13,06,37,10.10
2020,09,13,06,38,10.10
2020,09,13,06,39,10.10
2020,09,13,06,40,10.10
2020,09,13,06,41,10.10
2020,09,13,06,42,10.10
2020,09,13,06,43,10.10
2020,09,13,06,44,10.20
2020,09,13,06,45,10.20
2020,09,13,06,46,10.20
2020,09,13,06,47,10.20
2020,09,13,06,48,10.30
2020,09,13,06,49,10.30
2020,09,13,06,50,10.30
2020,09,13,06,51,10.40
2020,09,13,06,52,10.40
2020,09,13,06,53,10.40
2020,09,13,06,54,10.40
2020,09,13,06,55,10.40
2020,09,13,06,56,10.40
2020,09,13,06,57,10.40
2020,09,13,06,58,10.40
2020,09,13,06,59,10.40
2020,09,13,07,00,10.40
2020,09,13,07,01,10.50
2020,09,13,07,02,10.50
2020,09,13,07,03,10.50
2020,09,13,07,04,10.50
2020,09,13,07,05,10.40
2020,09,13,07,06,10.50
2020,09,13,07,07,10.50
2020,09,13,07,08,10.60
2020,09,13,07,09,10.60
2020,09,13,07,10,10.70
2020,09,13,07,11,10.80
2020,09,13,07,12,10.80
2020,09,13,07,13,10.80
2020,09,13,07,14,10.80
2020,09,13,07,15,10.80
2020,09,13,07,16,10.80
2020,09,13,07,17,10.80
2020,09,13,07,18,10.80
2020,09,13,07,19,10.90
2020,09,13,07,20,10.90
2020,09,13,07,21,11.00
2020,09,13,07,22,11.00
2020,09,13,07,23,11.10
2020,09,13,07,24,11.10
2020,09,13,07,25,11.10
2020,09,13,07,26,11.10
2020,09,13,07,27,11.10
2020,09,13,07,28,11.10
2020,09,13,07,29,11.10
2020,09,13,07,30,11.00
2020,09,13,07,31,10.90
2020,09,13,07,32,10.90
2020,09,13,07,33,10.80
2020,09,13,07,34,10.80
2020,09,13,07,35,10.80
2020,09,13,07,36,10.80
2020,09,13,07,37,10.80
2020,09,13,07,38,10.80
2020,09,13,07,39,10.80
2020,09,13,07,40,10.80
2020,09,13,07,41,10.80
2020,09,13,07,42,10.70
2020,09,13,07,43,10.70
2020,09,13,07,44,10.70
2020,09,13,07,45,10.70
2020,09,13,07,46,10.70
2020,09,13,07,47,10.60
2020,09,13,07,48,10.60
2020,09,13,07,49,10.70
2020,09,13,07,50,10.70
2020,09,13,07,51,10.70
2020,09,13,07,52,10.70
2020,09,13,07,53,10.70
2020,09,13,07,54,10.70
2020,09,13,07,55,10.70
2020,09,13,07,56,10.70
2020,09,13,07,57,10.70
2020,09,13,07,58,10.70
2020,09,13,07,59,10.70
2020,09,13,08,00,10.70
2020,09,13,08,01,10.70
2020,09,13,08,02,10.70
2020,09,13,08,03,10.70
2020,09,13,08,04,10.80
2020,09,13,08,05,10.80
2020,09,13,08,06,10.80
2020,09,13,08,07,10.70
2020,09,13,08,08,10.80
2020,09,13,08,09,10.80
2020,09,13,08,10,10.80
2020,09,13,08,11,10.80
2020,09,13,08,12,10.80
2020,09,13,08,13,10.80
2020,09,13,08,14,10.80
2020,09,13,08,15,10.80
2020,09,13,08,16,10.90
2020,09,13,08,17,10.90
2020,09,13,08,18,10.90
2020,09,13,08,19,10.90
2020,09,13,08,20,10.90
2020,09,13,08,21,10.90
2020,09,13,08,22,10.90
2020,09,13,08,23,10.90
2020,09,13,08,24,10.90
2020,09,13,08,25,11.00
2020,09,13,08,26,11.00
2020,09,13,08,27,11.00
2020,09,13,08,28,11.00
2020,09,13,08,29,11.00
2020,09,13,08,30,11.10
2020,09,13,08,31,11.10
2020,09,13,08,32,11.10
2020,09,13,08,33,11.10
2020,09,13,08,34,11.10
2020,09,13,08,35,11.10
2020,09,13,08,36,11.10
2020,09,13,08,37,11.10
2020,09,13,08,38,11.10
2020,09,13,08,39,11.10
2020,09,13,08,40,11.20
2020,09,13,08,41,11.20
2020,09,13,08,42,11.20
2020,09,13,08,43,11.20
2020,09,13,08,44,11.20
2020,09,13,08,45,11.20
2020,09,13,08,46,11.30
2020,09,13,08,47,11.30
2020,09,13,08,48,11.30
2020,09,13,08,49,11.30
2020,09,13,08,50,11.30
2020,09,13,08,51,11.40
2020,09,13,08,52,11.40
2020,09,13,08,53,11.40
2020,09,13,08,54,11.40
2020,09,13,08,55,11.40
2020,09,13,08,56,11.50
2020,09,13,08,57,11.50
2020,09,13,08,58,11.50
2020,09,13,08,59,11.50
2020,09,13,09,00,11.60
2020,09,13,09,01,11.60
2020,09,13,09,02,11.60
2020,09,13,09,03,11.60
2020,09,13,09,04,11.60
2020,09,13,09,05,11.70
2020,09,13,09,06,11.70
2020,09,13,09,07,11.70
2020,09,13,09,08,11.70
2020,09,13,09,09,11.80
2020,09,13,09,10,11.80
2020,09,13,09,11,11.80
2020,09,13,09,12,11.80
2020,09,13,09,13,11.90
2020,09,13,09,14,11.90
2020,09,13,09,15,11.90
2020,09,13,09,16,11.90
2020,09,13,09,17,11.90
2020,09,13,09,18,11.90
2020,09,13,09,19,11.90
2020,09,13,09,20,12.00
2020,09,13,09,21,12.00
2020,09,13,09,22,12.00
2020,09,13,09,23,12.00
2020,09,13,09,24,12.00
2020,09,13,09,25,12.10
2020,09,13,09,26,12.00
2020,09,13,09,27,12.10
2020,09,13,09,28,12.10
2020,09,13,09,29,12.10
2020,09,13,09,30,12.10
2020,09,13,09,31,12.10
2020,09,13,09,32,12.10
2020,09,13,09,33,12.10
2020,09,13,09,34,12.10
2020,09,13,09,35,12.10
2020,09,13,09,36,12.10
2020,09,13,09,37,12.10
2020,09,13,09,38,12.10
2020,09,13,09,39,12.10
2020,09,13,09,40,12.10
2020,09,13,09,41,12.10
2020,09,13,09,42,12.10
2020,09,13,09,43,12.00
2020,09,13,09,44,12.00
2020,09,13,09,45,12.00
2020,09,13,09,46,11.90
2020,09,13,09,47,11.90
2020,09,13,09,48,11.90
2020,09,13,09,49,11.80
2020,09,13,09,50,11.80
2020,09,13,09,51,11.80
2020,09,13,09,52,11.80
2020,09,13,09,53,11.80
2020,09,13,09,54,11.80
2020,09,13,09,55,11.80
2020,09,13,09,56,11.80
2020,09,13,09,57,11.90
2020,09,13,09,58,11.90
2020,09,13,09,59,11.90
2020,09,13,10,00,12.00
2020,09,13,10,01,12.00
2020,09,13,10,02,12.00
2020,09,13,10,03,12.00
2020,09,13,10,04,12.00
2020,09,13,10,05,12.00
2020,09,13,10,06,12.00
2020,09,13,10,07,12.00
2020,09,13,10,08,12.00
2020,09,13,10,09,12.00
2020,09,13,10,10,12.00
2020,09,13,10,11,12.00
2020,09,13,10,12,12.00
2020,09,13,10,13,12.00
2020,09,13,10,14,12.00
2020,09,13,10,15,12.00
2020,09,13,10,16,12.00
2020,09,13,10,17,11.90
2020,09,13,10,18,11.90
2020,09,13,10,19,11.90
2020,09,13,10,20,11.90
2020,09,13,10,21,11.90
2020,09,13,10,22,11.90
2020,09,13,10,23,11.90
2020,09,13,10,24,11.90
2020,09,13,10,25,11.90
2020,09,13,10,26,11.90
2020,09,13,10,27,11.90
2020,09,13,10,28,11.90
2020,09,13,10,29,11.90
2020,09,13,10,30,11.90
2020,09,13,10,31,11.90
2020,09,13,10,32,11.80
2020,09,13,10,33,11.90
2020,09,13,10,34,11.90
2020,09,13,10,35,11.80
2020,09,13,10,36,11.80
2020,09,13,10,37,11.80
2020,09,13,10,38,11.80
2020,09,13,10,39,11.80
2020,09,13,10,40,11.80
2020,09,13,10,41,11.80
2020,09,13,10,42,11.80
2020,09,13,10,43,11.80
2020,09,13,10,44,11.80
2020,09,13,10,45,11.80
2020,09,13,10,46,11.80
2020,09,13,10,47,11.80
2020,09,13,10,48,11.80
2020,09,13,10,49,11.80
2020,09,13,10,50,11.70
2020,09,13,10,51,11.70
2020,09,13,10,52,11.70
2020,09,13,10,53,11.70
2020,09,13,10,54,11.60
2020,09,13,10,55,11.60
2020,09,13,10,56,11.60
2020,09,13,10,57,11.60
2020,09,13,10,58,11.60
2020,09,13,10,59,11.60
2020,09,13,11,00,11.60
2020,09,13,11,01,11.60
2020,09,13,11,02,11.70
2020,09,13,11,03,11.70
2020,09,13,11,04,11.70
2020,09,13,11,05,11.60
2020,09,13,11,06,11.60
2020,09,13,11,07,11.60
2020,09,13,11,08,11.60
2020,09,13,11,09,11.60
2020,09,13,11,10,11.60
2020,09,13,11,11,11.70
2020,09,13,11,12,11.70
2020,09,13,11,13,11.70
2020,09,13,11,14,11.80
2020,09,13,11,15,11.80
2020,09,13,11,16,11.80
2020,09,13,11,17,11.80
2020,09,13,11,18,11.80
2020,09,13,11,19,11.80
2020,09,13,11,20,11.80
2020,09,13,11,21,11.80
2020,09,13,11,22,11.80
2020,09,13,11,23,11.90
2020,09,13,11,24,11.90
2020,09,13,11,25,11.90
2020,09,13,11,26,11.90
2020,09,13,11,27,11.90
2020,09,13,11,28,11.90
2020,09,13,11,29,11.90
2020,09,13,11,30,11.90
2020,09,13,11,31,11.90
2020,09,13,11,32,11.90
2020,09,13,11,33,11.90
2020,09,13,11,34,11.90
2020,09,13,11,35,11.90
2020,09,13,11,36,11.80
2020,09,13,11,37,11.80
2020,09,13,11,38,11.80
2020,09,13,11,39,11.80
2020,09,13,11,40,11.80
2020,09,13,11,41,11.80
2020,09,13,11,42,11.80
2020,09,13,11,43,11.80
2020,09,13,11,44,11.80
2020,09,13,11,45,11.80
2020,09,13,11,46,11.80
2020,09,13,11,47,11.80
2020,09,13,11,48,11.80
2020,09,13,11,49,11.90
2020,09,13,11,50,11.90
2020,09,13,11,51,12.00
2020,09,13,11,52,12.00
2020,09,13,11,53,12.10
2020,09,13,11,54,12.10
2020,09,13,11,55,12.00
2020,09,13,11,56,12.00
2020,09,13,11,57,12.00
2020,09,13,11,58,12.00
2020,09,13,11,59,12.00
2020,09,13,12,00,12.00
2020,09,13,12,01,12.00
2020,09,13,12,02,12.00
2020,09,13,12,03,12.10
2020,09,13,12,04,12.10
2020,09,13,12,05,12.10
2020,09,13,12,06,12.20
2020,09,13,12,07,12.20
2020,09,13,12,08,12.20
2020,09,13,12,09,12.20
2020,09,13,12,10,12.20
2020,09,13,12,11,12.30
2020,09,13,12,12,12.30
2020,09,13,12,13,12.30
2020,09,13,12,14,12.20
2020,09,13,12,15,12.20
2020,09,13,12,16,12.20
2020,09,13,12,17,12.20
2020,09,13,12,18,12.20
2020,09,13,12,19,12.20
2020,09,13,12,20,12.20
2020,09,13,12,21,12.20
2020,09,13,12,22,12.20
2020,09,13,12,23,12.20
2020,09,13,12,24,12.20
2020,09,13,12,25,12.20
2020,09,13,12,26,12.20
2020,09,13,12,27,12.30
2020,09,13,12,28,12.30
2020,09,13,12,29,12.30
2020,09,13,12,30,12.30
2020,09,13,12,31,12.30
2020,09,13,12,32,12.30
2020,09,13,12,33,12.40
2020,09,13,12,34,12.40
2020,09,13,12,35,12.40
2020,09,13,12,36,12.40
2020,09,13,12,37,12.40
2020,09,13,12,38,12.40
2020,09,13,12,39,12.40
2020,09,13,12,40,12.40
2020,09,13,12,41,12.40
2020,09,13,12,42,12.40
2020,09,13,12,43,12.40
2020,09,13,12,44,12.40
2020,09,13,12,45,12.50
2020,09,13,12,46,12.50
2020,09,13,12,47,12.50
2020,09,13,12,48,12.50
2020,09,13,12,49,12.50
2020,09,13,12,50,12.50
2020,09,13,12,51,12.60
2020,09,13,12,52,12.60
2020,09,13,12,53,12.60
2020,09,13,12,54,12.60
2020,09,13,12,55,12.60
2020,09,13,12,56,12.60
2020,09,13,12,57,12.70
2020,09,13,12,58,12.70
2020,09,13,12,59,12.70
2020,09,13,13,00,12.70
2020,09,13,13,01,12.70
2020,09,13,13,02,12.60
2020,09,13,13,03,12.60
2020,09,13,13,04,12.60
2020,09,13,13,05,12.60
2020,09,13,13,06,12.60
2020,09,13,13,07,12.70
2020,09,13,13,08,12.70
2020,09,13,13,09,12.80
2020,09,13,13,10,12.80
2020,09,13,13,11,12.80
2020,09,13,13,12,12.80
2020,09,13,13,13,12.90
2020,09,13,13,14,12.90
2020,09,13,13,15,13.00
2020,09,13,13,16,13.10
2020,09,13,13,17,13.10
2020,09,13,13,18,13.20
2020,09,13,13,19,13.20
2020,09,13,13,20,13.20
2020,09,13,13,21,13.30
2020,09,13,13,22,13.30
2020,09,13,13,23,13.20
2020,09,13,13,24,13.10
2020,09,13,13,25,13.10
2020,09,13,13,26,13.10
2020,09,13,13,27,13.10
2020,09,13,13,28,13.10
2020,09,13,13,29,13.10
2020,09,13,13,30,13.20
2020,09,13,13,31,13.20
2020,09,13,13,32,13.20
2020,09,13,13,33,13.20
2020,09,13,13,34,13.30
2020,09,13,13,35,13.30
2020,09,13,13,36,13.30
2020,09,13,13,37,13.30
2020,09,13,13,38,13.30
2020,09,13,13,39,13.30
2020,09,13,13,40,13.30
2020,09,13,13,41,13.30
2020,09,13,13,42,13.30
2020,09,13,13,43,13.30
2020,09,13,13,44,13.40
2020,09,13,13,45,13.30
2020,09,13,13,46,13.30
2020,09,13,13,47,13.30
2020,09,13,13,48,13.40
2020,09,13,13,49,13.40
2020,09,13,13,50,13.40
2020,09,13,13,51,13.40
2020,09,13,13,52,13.40
2020,09,13,13,53,13.40
2020,09,13,13,54,13.40
2020,09,13,13,55,13.50
2020,09,13,13,56,13.50
2020,09,13,13,57,13.50
2020,09,13,13,58,13.50
2020,09,13,13,59,13.50
2020,09,13,14,00,13.50
2020,09,13,14,01,13.50
2020,09,13,14,02,13.40
2020,09,13,14,03,13.40
2020,09,13,14,04,13.30
2020,09,13,14,05,13.30
2020,09,13,14,06,13.30
2020,09,13,14,07,13.20
2020,09,13,14,08,13.20
2020,09,13,14,09,13.20
2020,09,13,14,10,13.10
2020,09,13,14,11,13.10
2020,09,13,14,12,13.10
2020,09,13,14,13,13.10
2020,09,13,14,14,13.10
2020,09,13,14,15,13.00
2020,09,13,14,16,13.00
2020,09,13,14,17,13.00
2020,09,13,14,18,13.00
2020,09,13,14,19,13.00
2020,09,13,14,20,13.10
2020,09,13,14,21,13.10
2020,09,13,14,22,13.10
2020,09,13,14,23,13.10
2020,09,13,14,24,13.10
2020,09,13,14,25,13.20
2020,09,13,14,26,13.20
2020,09,13,14,27,13.30
2020,09,13,14,28,13.30
2020,09,13,14,29,13.40
2020,09,13,14,30,13.40
2020,09,13,14,31,13.40
2020,09,13,14,32,13.50
2020,09,13,14,33,13.50
2020,09,13,14,34,13.60
2020,09,13,14,35,13.60
2020,09,13,14,36,13.70
2020,09,13,14,37,13.70
2020,09,13,14,38,13.70
2020,09,13,14,39,13.70
2020,09,13,14,40,13.70
2020,09,13,14,41,13.70
2020,09,13,14,42,13.70
2020,09,13,14,43,13.80
2020,09,13,14,44,13.80
2020,09,13,14,45,13.80
2020,09,13,14,46,13.80
2020,09,13,14,47,13.80
2020,09,13,14,48,13.80
2020,09,13,14,49,13.80
2020,09,13,14,50,13.80
2020,09,13,14,51,13.80
2020,09,13,14,52,13.80
2020,09,13,14,53,13.80
2020,09,13,14,54,13.80
2020,09,13,14,55,13.90
2020,09,13,14,56,13.90
2020,09,13,14,57,13.90
2020,09,13,14,58,13.90
2020,09,13,14,59,14.00
2020,09,13,15,00,14.00
2020,09,13,15,01,14.00
2020,09,13,15,02,14.00
2020,09,13,15,03,13.90
2020,09,13,15,04,13.90
2020,09,13,15,05,13.90
2020,09,13,15,06,13.90
2020,09,13,15,07,13.90
2020,09,13,15,08,13.90
2020,09,13,15,09,14.00
2020,09,13,15,10,14.00
2020,09,13,15,11,14.00
2020,09,13,15,12,14.00
2020,09,13,15,13,14.10
2020,09,13,15,14,14.10
2020,09,13,15,15,14.10
2020,09,13,15,16,14.10
2020,09,13,15,17,14.10
2020,09,13,15,18,14.10
2020,09,13,15,19,14.10
2020,09,13,15,20,14.20
2020,09,13,15,21,14.20
2020,09,13,15,22,14.20
2020,09,13,15,23,14.10
2020,09,13,15,24,14.10
2020,09,13,15,25,14.20
2020,09,13,15,26,14.20
2020,09,13,15,27,14.20
2020,09,13,15,28,14.20
2020,09,13,15,29,14.30
2020,09,13,15,30,14.30
2020,09,13,15,31,14.30
2020,09,13,15,32,14.40
2020,09,13,15,33,14.40
2020,09,13,15,34,14.40
2020,09,13,15,35,14.40
2020,09,13,15,36,14.40
2020,09,13,15,37,14.40
2020,09,13,15,38,14.40
2020,09,13,15,39,14.40
2020,09,13,15,40,14.40
2020,09,13,15,41,14.40
2020,09,13,15,42,14.40
2020,09,13,15,43,14.40
2020,09,13,15,44,14.40
2020,09,13,15,45,14.40
2020,09,13,15,46,14.40
2020,09,13,15,47,14.40
2020,09,13,15,48,14.50
2020,09,13,15,49,14.50
2020,09,13,15,50,14.50
2020,09,13,15,51,14.60
2020,09,13,15,52,14.60
2020,09,13,15,53,14.60
2020,09,13,15,54,14.60
2020,09,13,15,55,14.60
2020,09,13,15,56,14.50
2020,09,13,15,57,14.50
2020,09,13,15,58,14.40
2020,09,13,15,59,14.50
2020,09,13,16,00,14.50
2020,09,13,16,01,14.50
2020,09,13,16,02,14.50
2020,09,13,16,03,14.60
2020,09,13,16,04,14.60
2020,09,13,16,05,14.60
2020,09,13,16,06,14.60
2020,09,13,16,07,14.60
2020,09,13,16,08,14.60
2020,09,13,16,09,14.50
2020,09,13,16,10,14.50
2020,09,13,16,11,14.50
2020,09,13,16,12,14.40
2020,09,13,16,13,14.40
2020,09,13,16,14,14.40
2020,09,13,16,15,14.30
2020,09,13,16,16,14.30
2020,09,13,16,17,14.30
2020,09,13,16,18,14.30
2020,09,13,16,19,14.30
2020,09,13,16,20,14.30
2020,09,13,16,21,14.30
2020,09,13,16,22,14.30
2020,09,13,16,23,14.30
2020,09,13,16,24,14.30
2020,09,13,16,25,14.30
2020,09,13,16,26,14.40
2020,09,13,16,27,14.40
2020,09,13,16,28,14.40
2020,09,13,16,29,14.40
2020,09,13,16,30,14.50
2020,09,13,16,31,14.50
2020,09,13,16,32,14.50
2020,09,13,16,33,14.50
2020,09,13,16,34,14.50
2020,09,13,16,35,14.60
2020,09,13,16,36,14.60
2020,09,13,16,37,14.60
2020,09,13,16,38,14.60
2020,09,13,16,39,14.70
2020,09,13,16,40,14.70
2020,09,13,16,41,14.70
2020,09,13,16,42,14.80
2020,09,13,16,43,14.80
2020,09,13,16,44,14.80
2020,09,13,16,45,14.90
2020,09,13,16,46,14.90
2020,09,13,16,47,15.00
2020,09,13,16,48,15.00
2020,09,13,16,49,15.10
2020,09,13,16,50,15.10
2020,09,13,16,51,15.10
2020,09,13,16,52,15.20
2020,09,13,16,53,15.20
2020,09,13,16,54,15.20
2020,09,13,16,55,15.20
2020,09,13,16,56,15.20
2020,09,13,16,57,15.20
2020,09,13,16,58,15.20
2020,09,13,16,59,15.20
2020,09,13,17,00,15.20
2020,09,13,17,01,15.20
2020,09,13,17,02,15.20
2020,09,13,17,03,15.20
2020,09,13,17,04,15.20
2020,09,13,17,05,15.10
2020,09,13,17,06,15.10
2020,09,13,17,07,15.10
2020,09,13,17,08,15.10
2020,09,13,17,09,15.10
2020,09,13,17,10,15.00
2020,09,13,17,11,15.00
2020,09,13,17,12,15.00
2020,09,13,17,13,15.00
2020,09,13,17,14,14.90
2020,09,13,17,15,14.90
2020,09,13,17,16,14.90
2020,09,13,17,17,14.90
2020,09,13,17,18,14.80
2020,09,13,17,19,14.80
2020,09,13,17,20,14.80
2020,09,13,17,21,14.80
2020,09,13,17,22,14.80